Time,TemperatureF,DewpointF,PressureIn,WindDirection,WindDirectionDegrees,WindSpeedMPH,WindSpeedGustMPH,Humidity,HourlyPrecipIn,Conditions,Clouds,dailyrainin,SoftwareType,DateUTC
2013-03-04 00:01:00,32.0,22.0,-100.00,SE,125,10.0,11.0,67,-99.99,,,-99.99,,2013-03-04 06:01:00,
2013-03-04 00:11:00,32.0,22.0,-100.00,ESE,115,9.0,11.0,67,-99.99,,,-99.99,,2013-03-04 06:11:00,
2013-03-04 00:21:00,32.0,22.0,-100.00,ESE,115,9.0,11.0,67,-99.99,,,-99.99,,2013-03-04 06:21:00,
2013-03-04 00:32:00,32.0,23.0,-100.00,ESE,115,9.0,11.0,68,-99.99,,,-99.99,,2013-03-04 06:32:00,
2013-03-04 00:42:00,32.0,23.0,-100.00,ESE,115,9.0,11.0,68,-99.99,,,-99.99,,2013-03-04 06:42:00,
2013-03-04 00:52:00,32.0,23.0,-100.00,SE,125,10.0,12.0,68,-99.99,,,-99.99,,2013-03-04 06:52:00,
2013-03-04 01:01:00,32.0,22.0,-100.00,ESE,120,10.0,14.0,67,-99.99,,,-99.99,,2013-03-04 07:01:00,
2013-03-04 01:11:00,32.0,22.0,-100.00,ESE,120,10.0,14.0,67,-99.99,,,-99.99,,2013-03-04 07:11:00,
2013-03-04 01:21:00,32.0,22.0,-100.00,SE,130,9.0,12.0,67,-99.99,,,-99.99,,2013-03-04 07:21:00,
2013-03-04 01:32:00,32.0,22.0,-100.00,SE,130,9.0,12.0,67,-99.99,,,-99.99,,2013-03-04 07:32:00,
2013-03-04 01:42:00,32.0,22.0,-100.00,SE,135,10.0,12.0,66,-99.99,,,-99.99,,2013-03-04 07:42:00,
2013-03-04 01:52:00,32.0,23.0,-100.00,SE,135,10.0,12.0,68,-99.99,,,-99.99,,2013-03-04 07:52:00,
2013-03-04 02:02:00,32.0,23.0,-100.00,SE,135,10.0,12.0,68,-99.99,,,-99.99,,2013-03-04 08:02:00,
2013-03-04 02:11:00,32.0,23.0,-100.00,ESE,120,10.0,11.0,68,-99.99,,,-99.99,,2013-03-04 08:11:00,
2013-03-04 02:22:00,32.0,23.0,-100.00,SE,125,11.0,12.0,68,-99.99,,,-99.99,,2013-03-04 08:22:00,
2013-03-04 02:32:00,32.0,23.0,-100.00,SE,125,11.0,12.0,68,-99.99,,,-99.99,,2013-03-04 08:32:00,
2013-03-04 02:42:00,32.0,23.0,-100.00,ESE,115,10.0,12.0,68,-99.99,,,-99.99,,2013-03-04 08:42:00,
2013-03-04 02:52:00,32.0,23.0,-100.00,SE,125,14.0,16.0,68,-99.99,,,-99.99,,2013-03-04 08:52:00,
2013-03-04 03:01:00,32.0,23.0,-100.00,SE,125,14.0,16.0,68,-99.99,,,-99.99,,2013-03-04 09:01:00,
2013-03-04 03:11:00,32.0,23.0,-100.00,SE,125,12.0,14.0,68,-99.99,,,-99.99,,2013-03-04 09:11:00,
2013-03-04 03:21:00,32.0,23.0,-100.00,ESE,105,12.0,14.0,68,-99.99,,,-99.99,,2013-03-04 09:21:00,
2013-03-04 03:32:00,32.0,23.0,-100.00,ESE,105,12.0,14.0,68,-99.99,,,-99.99,,2013-03-04 09:32:00,
2013-03-04 03:42:00,32.0,23.0,-100.00,ESE,120,12.0,17.0,69,-99.99,,,-99.99,,2013-03-04 09:42:00,
2013-03-04 03:52:00,32.0,23.0,-100.00,ESE,120,12.0,17.0,69,-99.99,,,-99.99,,2013-03-04 09:52:00,
2013-03-04 04:01:00,32.0,23.0,-100.00,ESE,115,14.0,16.0,70,-99.99,,,-99.99,,2013-03-04 10:01:00,
2013-03-04 04:11:00,32.0,23.0,-100.00,ESE,120,14.0,18.0,69,-99.99,,,-99.99,,2013-03-04 10:11:00,
2013-03-04 04:22:00,32.0,23.0,-100.00,ESE,120,14.0,18.0,69,-99.99,,,-99.99,,2013-03-04 10:22:00,
2013-03-04 04:42:00,32.0,23.0,-100.00,ESE,115,14.0,19.0,68,-99.99,,,-99.99,,2013-03-04 10:42:00,
2013-03-04 04:52:00,32.0,23.0,-100.00,SE,135,14.0,18.0,68,-99.99,,,-99.99,,2013-03-04 10:52:00,
2013-03-04 05:02:00,32.0,23.0,-100.00,SE,135,14.0,18.0,68,-99.99,,,-99.99,,2013-03-04 11:02:00,
2013-03-04 05:11:00,32.0,23.0,-100.00,SE,130,16.0,19.0,69,-99.99,,,-99.99,,2013-03-04 11:11:00,
2013-03-04 05:22:00,32.0,23.0,-100.00,SE,130,16.0,19.0,69,-99.99,,,-99.99,,2013-03-04 11:22:00,
2013-03-04 05:32:00,31.0,24.0,-100.00,SE,130,17.0,19.0,74,-99.99,,,-99.99,,2013-03-04 11:32:00,
2013-03-04 05:42:00,31.0,25.0,-100.00,SE,130,17.0,19.0,79,-99.99,,,-99.99,,2013-03-04 11:42:00,
2013-03-04 05:52:00,31.0,25.0,-100.00,SE,130,17.0,19.0,79,-99.99,,,-99.99,,2013-03-04 11:52:00,
2013-03-04 06:01:00,31.0,25.0,-100.00,SE,130,17.0,19.0,79,-99.99,,,-99.99,,2013-03-04 12:01:00,
2013-03-04 06:22:00,31.0,27.0,-100.00,SE,125,19.0,23.0,84,-99.99,,,-99.99,,2013-03-04 12:22:00,
2013-03-04 06:32:00,31.0,27.0,-100.00,SE,125,19.0,23.0,84,-99.99,,,-99.99,,2013-03-04 12:32:00,
2013-03-04 06:42:00,31.0,27.0,-100.00,ESE,120,18.0,23.0,85,-99.99,,,-99.99,,2013-03-04 12:42:00,
2013-03-04 06:53:00,31.0,27.0,-100.00,ESE,120,18.0,23.0,85,-99.99,,,-99.99,,2013-03-04 12:53:00,
2013-03-04 07:02:00,31.0,27.0,-100.00,ESE,120,18.0,23.0,85,-99.99,,,-99.99,,2013-03-04 13:02:00,
2013-03-04 07:11:00,31.0,27.0,-100.00,SE,125,19.0,21.0,85,-99.99,,,-99.99,,2013-03-04 13:11:00,
2013-03-04 07:21:00,31.0,27.0,-100.00,ESE,115,18.0,23.0,85,-99.99,,,-99.99,,2013-03-04 13:21:00,
2013-03-04 07:32:00,31.0,27.0,-100.00,ESE,115,18.0,23.0,85,-99.99,,,-99.99,,2013-03-04 13:32:00,
2013-03-04 07:42:00,31.0,27.0,-100.00,ESE,110,21.0,25.0,85,-99.99,,,-99.99,,2013-03-04 13:42:00,
2013-03-04 07:52:00,31.0,27.0,-100.00,ESE,110,21.0,25.0,85,-99.99,,,-99.99,,2013-03-04 13:52:00,
2013-03-04 08:01:00,31.0,27.0,-100.00,ESE,110,21.0,25.0,85,-99.99,,,-99.99,,2013-03-04 14:01:00,
2013-03-04 08:11:00,32.0,28.0,-100.00,ESE,120,19.0,23.0,85,-99.99,,,-99.99,,2013-03-04 14:11:00,
2013-03-04 08:22:00,32.0,28.0,-100.00,ESE,115,19.0,27.0,84,-99.99,,,-99.99,,2013-03-04 14:22:00,
2013-03-04 08:32:00,32.0,28.0,-100.00,ESE,115,19.0,27.0,84,-99.99,,,-99.99,,2013-03-04 14:32:00,
2013-03-04 08:42:00,32.0,27.0,-100.00,SE,125,21.0,26.0,82,-99.99,,,-99.99,,2013-03-04 14:42:00,
2013-03-04 08:52:00,32.0,27.0,-100.00,ESE,120,21.0,25.0,82,-99.99,,,-99.99,,2013-03-04 14:52:00,
2013-03-04 09:01:00,32.0,27.0,-100.00,ESE,120,21.0,25.0,82,-99.99,,,-99.99,,2013-03-04 15:01:00,
2013-03-04 09:02:00,33.0,28.0,-100.00,SE,125,23.0,29.0,81,-99.99,,,-99.99,,2013-03-04 15:02:00,
2013-03-04 09:11:00,33.0,28.0,-100.00,ESE,110,23.0,27.0,81,-99.99,,,-99.99,,2013-03-04 15:11:00,
2013-03-04 09:22:00,33.0,28.0,-100.00,ESE,115,23.0,26.0,81,-99.99,,,-99.99,,2013-03-04 15:22:00,
2013-03-04 09:32:00,33.0,28.0,-100.00,ESE,115,23.0,26.0,81,-99.99,,,-99.99,,2013-03-04 15:32:00,
2013-03-04 09:42:00,33.0,28.0,-100.00,SE,125,23.0,29.0,81,-99.99,,,-99.99,,2013-03-04 15:42:00,
2013-03-04 09:52:00,33.0,28.0,-100.00,SE,125,23.0,29.0,81,-99.99,,,-99.99,,2013-03-04 15:52:00,
2013-03-04 10:11:00,34.0,28.0,-100.00,ESE,120,23.0,26.0,79,-99.99,,,-99.99,,2013-03-04 16:11:00,
2013-03-04 10:21:00,34.0,28.0,-100.00,SE,130,21.0,27.0,77,-99.99,,,-99.99,,2013-03-04 16:21:00,
2013-03-04 10:32:00,34.0,28.0,-100.00,SE,130,21.0,27.0,77,-99.99,,,-99.99,,2013-03-04 16:32:00,
2013-03-04 10:42:00,34.0,28.0,-100.00,SE,130,21.0,27.0,77,-99.99,,,-99.99,,2013-03-04 16:42:00,
2013-03-04 10:52:00,36.0,28.0,-100.00,ESE,120,24.0,27.0,73,-99.99,,,-99.99,,2013-03-04 16:52:00,
2013-03-04 11:02:00,36.0,28.0,-100.00,ESE,120,24.0,27.0,73,-99.99,,,-99.99,,2013-03-04 17:02:00,
2013-03-04 11:11:00,35.0,27.0,-100.00,East,100,21.0,26.0,73,-99.99,,,-99.99,,2013-03-04 17:11:00,
2013-03-04 11:22:00,35.0,27.0,-100.00,ESE,110,19.0,23.0,73,-99.99,,,-99.99,,2013-03-04 17:22:00,
2013-03-04 11:32:00,35.0,27.0,-100.00,ESE,110,19.0,23.0,73,-99.99,,,-99.99,,2013-03-04 17:32:00,
2013-03-04 11:42:00,36.0,28.0,-100.00,ESE,115,19.0,26.0,73,-99.99,,,-99.99,,2013-03-04 17:42:00,
2013-03-04 11:52:00,37.0,28.0,-100.00,ESE,115,21.0,25.0,71,-99.99,,,-99.99,,2013-03-04 17:52:00,
2013-03-04 12:01:00,37.0,28.0,-100.00,ESE,115,21.0,25.0,71,-99.99,,,-99.99,,2013-03-04 18:01:00,
2013-03-04 12:11:00,37.0,28.0,-100.00,ESE,105,19.0,24.0,70,-99.99,,,-99.99,,2013-03-04 18:11:00,
2013-03-04 12:22:00,38.0,28.0,-100.00,ESE,105,21.0,24.0,66,-99.99,,,-99.99,,2013-03-04 18:22:00,
2013-03-04 12:32:00,38.0,28.0,-100.00,ESE,105,21.0,24.0,66,-99.99,,,-99.99,,2013-03-04 18:32:00,
2013-03-04 12:42:00,38.0,28.0,-100.00,ESE,105,21.0,24.0,66,-99.99,,,-99.99,,2013-03-04 18:42:00,
2013-03-04 12:52:00,38.0,27.0,-100.00,ESE,110,21.0,27.0,65,-99.99,,,-99.99,,2013-03-04 18:52:00,
2013-03-04 13:02:00,38.0,27.0,-100.00,ESE,110,21.0,27.0,65,-99.99,,,-99.99,,2013-03-04 19:02:00,
2013-03-04 13:11:00,38.0,27.0,-100.00,ESE,115,21.0,27.0,63,-99.99,,,-99.99,,2013-03-04 19:11:00,
2013-03-04 13:22:00,39.0,27.0,-100.00,ESE,110,21.0,29.0,63,-99.99,,,-99.99,,2013-03-04 19:22:00,
2013-03-04 13:32:00,39.0,27.0,-100.00,ESE,110,21.0,29.0,63,-99.99,,,-99.99,,2013-03-04 19:32:00,
2013-03-04 13:42:00,39.0,27.0,-100.00,ESE,110,17.0,23.0,63,-99.99,,,-99.99,,2013-03-04 19:42:00,
2013-03-04 13:52:00,39.0,27.0,-100.00,East,95,18.0,24.0,63,-99.99,,,-99.99,,2013-03-04 19:52:00,
2013-03-04 14:02:00,39.0,27.0,-100.00,East,95,18.0,24.0,63,-99.99,,,-99.99,,2013-03-04 20:02:00,
2013-03-04 14:11:00,39.0,27.0,-100.00,East,100,18.0,25.0,62,-99.99,,,-99.99,,2013-03-04 20:11:00,
2013-03-04 14:22:00,39.0,27.0,-100.00,SE,125,16.0,24.0,62,-99.99,,,-99.99,,2013-03-04 20:22:00,
2013-03-04 14:32:00,39.0,27.0,-100.00,SE,140,19.0,25.0,61,-99.99,,,-99.99,,2013-03-04 20:32:00,
2013-03-04 14:42:00,39.0,27.0,-100.00,SE,140,19.0,25.0,61,-99.99,,,-99.99,,2013-03-04 20:42:00,
2013-03-04 14:52:00,39.0,27.0,-100.00,ESE,110,21.0,24.0,61,-99.99,,,-99.99,,2013-03-04 20:52:00,
2013-03-04 15:02:00,39.0,27.0,-100.00,ESE,110,21.0,24.0,61,-99.99,,,-99.99,,2013-03-04 21:02:00,
2013-03-04 15:12:00,40.0,28.0,-100.00,ESE,115,21.0,24.0,61,-99.99,,,-99.99,,2013-03-04 21:12:00,
2013-03-04 15:22:00,40.0,28.0,-100.00,ESE,115,18.0,25.0,61,-99.99,,,-99.99,,2013-03-04 21:22:00,
2013-03-04 15:32:00,40.0,28.0,-100.00,ESE,115,18.0,25.0,61,-99.99,,,-99.99,,2013-03-04 21:32:00,
2013-03-04 15:42:00,40.0,27.0,-100.00,ESE,105,18.0,21.0,59,-99.99,,,-99.99,,2013-03-04 21:42:00,
2013-03-04 15:53:00,40.0,27.0,-100.00,East,90,17.0,24.0,59,-99.99,,,-99.99,,2013-03-04 21:53:00,
2013-03-04 16:02:00,40.0,27.0,-100.00,East,90,17.0,24.0,59,-99.99,,,-99.99,,2013-03-04 22:02:00,
2013-03-04 16:12:00,40.0,26.0,-100.00,ESE,115,21.0,26.0,57,-99.99,,,-99.99,,2013-03-04 22:12:00,
2013-03-04 16:22:00,40.0,26.0,-100.00,ESE,110,24.0,31.0,58,-99.99,,,-99.99,,2013-03-04 22:22:00,
2013-03-04 16:32:00,40.0,26.0,-100.00,ESE,110,24.0,31.0,58,-99.99,,,-99.99,,2013-03-04 22:32:00,
2013-03-04 16:42:00,40.0,27.0,-100.00,East,95,21.0,26.0,59,-99.99,,,-99.99,,2013-03-04 22:42:00,
2013-03-04 16:52:00,40.0,27.0,-100.00,East,90,17.0,21.0,59,-99.99,,,-99.99,,2013-03-04 22:52:00,
2013-03-04 17:02:00,40.0,27.0,-100.00,East,90,17.0,21.0,59,-99.99,,,-99.99,,2013-03-04 23:02:00,
2013-03-04 17:11:00,40.0,28.0,-100.00,East,100,18.0,21.0,61,-99.99,,,-99.99,,2013-03-04 23:11:00,
2013-03-04 17:22:00,40.0,28.0,-100.00,East,100,18.0,21.0,61,-99.99,,,-99.99,,2013-03-04 23:22:00,
2013-03-04 17:32:00,40.0,28.0,-100.00,East,100,18.0,21.0,61,-99.99,,,-99.99,,2013-03-04 23:32:00,
2013-03-04 17:42:00,40.0,28.0,-100.00,East,90,17.0,21.0,62,-99.99,,,-99.99,,2013-03-04 23:42:00,
2013-03-04 17:52:00,39.0,27.0,-100.00,ESE,105,19.0,24.0,63,-99.99,,,-99.99,,2013-03-04 23:52:00,
2013-03-04 18:02:00,39.0,27.0,-100.00,ESE,105,19.0,24.0,63,-99.99,,,-99.99,,2013-03-05 00:02:00,
2013-03-04 18:11:00,39.0,27.0,-100.00,ESE,105,19.0,24.0,63,-99.99,,,-99.99,,2013-03-05 00:11:00,
2013-03-04 18:21:00,39.0,28.0,-100.00,East,95,17.0,23.0,64,-99.99,,,-99.99,,2013-03-05 00:21:00,
2013-03-04 18:32:00,39.0,28.0,-100.00,East,95,17.0,23.0,64,-99.99,,,-99.99,,2013-03-05 00:32:00,
2013-03-04 18:42:00,38.0,27.0,-100.00,East,90,14.0,21.0,65,-99.99,,,-99.99,,2013-03-05 00:42:00,
2013-03-04 18:52:00,38.0,27.0,-100.00,ENE,70,16.0,18.0,65,-99.99,,,-99.99,,2013-03-05 00:52:00,
2013-03-04 19:01:00,38.0,27.0,-100.00,ENE,70,16.0,18.0,65,-99.99,,,-99.99,,2013-03-05 01:01:00,
2013-03-04 19:12:00,38.0,27.0,-100.00,East,90,14.0,18.0,65,-99.99,,,-99.99,,2013-03-05 01:12:00,
2013-03-04 19:22:00,38.0,27.0,-100.00,East,90,14.0,18.0,65,-99.99,,,-99.99,,2013-03-05 01:22:00,
2013-03-04 19:52:00,37.0,27.0,-100.00,East,80,14.0,18.0,68,-99.99,,,-99.99,,2013-03-05 01:52:00,
2013-03-04 20:01:00,37.0,27.0,-100.00,East,80,14.0,18.0,68,-99.99,,,-99.99,,2013-03-05 02:01:00,
2013-03-04 20:11:00,37.0,28.0,-100.00,East,90,17.0,21.0,69,-99.99,,,-99.99,,2013-03-05 02:11:00,
2013-03-04 20:22:00,37.0,28.0,-100.00,ENE,70,14.0,17.0,69,-99.99,,,-99.99,,2013-03-05 02:22:00,
2013-03-04 20:32:00,37.0,28.0,-100.00,ENE,70,14.0,17.0,69,-99.99,,,-99.99,,2013-03-05 02:32:00,
2013-03-04 20:42:00,37.0,28.0,-100.00,ENE,75,14.0,17.0,70,-99.99,,,-99.99,,2013-03-05 02:42:00,
2013-03-04 20:52:00,37.0,28.0,-100.00,ENE,75,14.0,17.0,70,-99.99,,,-99.99,,2013-03-05 02:52:00,
2013-03-04 21:02:00,37.0,28.0,-100.00,ENE,75,14.0,17.0,70,-99.99,,,-99.99,,2013-03-05 03:02:00,
2013-03-04 21:12:00,37.0,29.0,-100.00,East,90,14.0,19.0,72,-99.99,,,-99.99,,2013-03-05 03:12:00,
2013-03-04 21:22:00,37.0,29.0,-100.00,East,80,14.0,16.0,73,-99.99,,,-99.99,,2013-03-05 03:22:00,
2013-03-04 21:32:00,37.0,29.0,-100.00,East,80,14.0,16.0,73,-99.99,,,-99.99,,2013-03-05 03:32:00,
2013-03-04 21:42:00,36.0,28.0,-100.00,East,85,12.0,14.0,73,-99.99,,,-99.99,,2013-03-05 03:42:00,
2013-03-04 21:52:00,37.0,29.0,-100.00,East,95,14.0,17.0,73,-99.99,,,-99.99,,2013-03-05 03:52:00,
2013-03-04 22:02:00,37.0,29.0,-100.00,East,95,14.0,17.0,73,-99.99,,,-99.99,,2013-03-05 04:02:00,
2013-03-04 22:12:00,37.0,29.0,-100.00,East,95,14.0,17.0,73,-99.99,,,-99.99,,2013-03-05 04:12:00,
2013-03-04 22:22:00,37.0,29.0,-100.00,East,80,12.0,14.0,72,-99.99,,,-99.99,,2013-03-05 04:22:00,
2013-03-04 22:32:00,37.0,29.0,-100.00,East,80,12.0,14.0,72,-99.99,,,-99.99,,2013-03-05 04:32:00,
2013-03-04 22:42:00,37.0,29.0,-100.00,ENE,75,12.0,14.0,72,-99.99,,,-99.99,,2013-03-05 04:42:00,
2013-03-04 22:52:00,37.0,28.0,-100.00,ENE,70,14.0,17.0,70,-99.99,,,-99.99,,2013-03-05 04:52:00,
2013-03-04 23:02:00,37.0,28.0,-100.00,ENE,70,14.0,17.0,70,-99.99,,,-99.99,,2013-03-05 05:02:00,
2013-03-04 23:12:00,37.0,29.0,-100.00,ENE,75,10.0,12.0,72,-99.99,,,-99.99,,2013-03-05 05:12:00,
2013-03-04 23:22:00,36.0,28.0,-100.00,ENE,75,11.0,14.0,73,-99.99,,,-99.99,,2013-03-05 05:22:00,
2013-03-04 23:32:00,36.0,28.0,-100.00,ENE,75,11.0,14.0,73,-99.99,,,-99.99,,2013-03-05 05:32:00,
2013-03-04 23:42:00,36.0,28.0,-100.00,ENE,75,11.0,14.0,73,-99.99,,,-99.99,,2013-03-05 05:42:00,
2013-03-04 23:52:00,36.0,29.0,-100.00,East,85,11.0,14.0,75,-99.99,,,-99.99,,2013-03-05 05:52:00,